Location: Klein M�hlingen
(51.9472°N, 11.7453°E)
Time: 19:40:15
(UTC+00:00)

ISS - Pass Details

Date: 29 September 2021
Orbit: 417 x 423 km, 51.6° (Epoch: 18 October)

Event Time Altitude Azimuth Distance (km) Brightness Sun altitude
Rises 19:49:16 0° 282° (WNW) 2,367 1.1 -26.5°
Reaches altitude 10° 19:51:40 10° 266° (W) 1,501 -0.3 -26.8°
Enters shadow 19:52:31 15° 254° (WSW) 1,255 -0.9 -26.9°
